Dewpoint
68 69 69 69 69 68 68 68 68 67 67 67 66 66 66 67 68 68 68 68 68 68 68 67 67 67 67 67 68 67 66 66 67 65 66 65 65 64 63 64 64 64
69 69 69 69 69 69 69 69 69 68 68 68 67 67 68 68 68 68 69 69 68 68 68 68 67 67 66 66 66 66 67 67 66 65 65 64 65 65 64 64 64 64
68 69 69 69 69 70 70 70 70 69 68 69 69 69 68 68 68 68 69 68 68 68 68 67 67 67 66 66 66 65 65 64 63 64 64 64 65 64 65 65 64 63
69 69 69 69 69 69 70 70 69 68 69 70 69 69 67 68 68 67 68 68 68 67 67 67 67 66 66 65 65 64 64 63 61 60 60 61 62 63 62 61 61 62
68 68 68 69 69 68 69 69 70 68 69 70 69 68 67 67 67 67 67 67 67 66 66 66 65 65 65 64 63 63 62 62 61 60 59 58 58 59 60 60 60 60
67 67 68 68 68 67 68 68 69 68 68 69 68 67 66 67 66 66 66 66 66 66 65 64 64 64 63 63 63 63 62 61 60 60 59 60 59 59 58 58 58 57
68 68 69 68 69 69 69 68 69 68 68 68 67 66 66 66 65 64 64 64 65 65 64 64 63 63 63 62 62 61 60 61 60 59 58 58 58 58 57 58 57 55
68 69 68 68 69 68 68 68 69 69 68 68 66 66 64 63 63 64 65 64 63 63 63 62 61 61 61 61 60 61 61 61 60 58 57 58 58 56 55 55 56 53
68 68 68 68 69 69 68 67 68 68 67 67 66 65 65 64 65 64 63 63 63 62 61 61 60 60 61 60 60 60 59 60 60 58 58 57 56 55 53 54 54 54
68 68 68 68 68 68 68 68 67 67 67 66 65 64 64 64 64 63 63 64 62 61 60 60 59 60 60 60 59 58 58 58 57 58 56 55 54 52 51 52 53 53
67 68 67 68 68 68 68 67 67 67 66 64 65 64 64 64 64 64 64 62 63 60 59 59 60 60 59 59 59 59 58 58 56 54 55 54 54 53 51 51 51 52
67 68 67 67 68 68 68 67 66 66 65 65 63 63 64 64 63 63 62 61 61 60 59 58 59 59 58 58 57 58 58 57 56 55 53 53 53 52 50 51 51 50
67 67 67 67 68 68 67 66 66 65 64 64 63 63 64 62 62 62 62 61 60 59 58 59 58 58 58 58 57 57 56 56 56 55 53 53 51 50 49 49 48 48
67 67 67 67 67 67 66 66 65 65 64 64 63 64 63 62 61 61 62 60 60 59 59 59 59 58 58 58 57 56 56 56 55 54 52 51 51 51 50 49 49 49
66 67 67 67 67 66 66 65 65 65 64 64 63 63 63 63 63 61 60 59 59 59 59 60 59 59 58 58 57 56 56 55 54 51 51 51 50 50 51 50 49 50
66 67 67 67 66 65 65 65 64 64 64 63 63 62 62 63 62 61 59 59 59 58 59 60 59 59 57 53 53 55 55 54 54 54 52 51 51 51 51 50 50 51
66 66 66 66 65 65 65 64 64 64 63 63 63 62 63 63 63 60 60 60 58 58 59 60 59 59 48 46 46 49 54 55 54 53 52 51 51 51 50 51 50 49
66 66 66 65 65 64 64 64 63 63 63 62 62 62 63 63 63 60 60 60 59 59 60 59 60 50 44 44 44 46 50 54 54 53 52 51 51 49 49 48 49 51
65 66 65 64 64 64 64 63 63 62 62 62 62 63 63 62 62 61 60 60 59 58 59 59 59 44 43 43 43 44 45 50 51 52 50 50 50 49 48 48 49 50
65 64 64 64 64 64 63 63 63 62 63 63 62 62 62 62 62 61 61 60 59 59 59 58 59 45 42 42 42 42 43 45 52 51 50 49 50 50 50 49 50 50
65 64 64 63 63 63 63 62 62 62 62 62 62 61 62 61 62 61 60 61 60 59 59 59 59 43 42 41 41 41 42 43 53 51 50 51 51 51 50 50 50 50
64 63 63 63 62 62 62 62 62 62 61 62 61 62 62 61 61 61 60 60 60 59 58 58 57 41 41 41 40 40 41 50 52 51 51 50 50 50 49 50 50 50
63 63 63 62 62 62 62 62 62 62 62 61 61 61 61 61 61 61 60 60 60 60 60 59 55 44 40 40 40 39 43 51 52 49 50 50 50 50 49 50 50 49
63 63 62 62 62 62 62 62 62 62 61 61 61 61 61 60 60 60 61 61 60 60 59 58 56 46 40 40 39 39 46 51 50 49 50 49 50 51 49 49 52 53
63 63 62 62 61 61 62 62 62 62 61 62 62 61 61 60 59 59 60 60 60 60 56 57 56 47 40 39 39 39 45 52 49 47 49 49 49 48 49 48 51 49
64 63 62 62 62 62 62 62 62 62 61 61 61 61 60 60 59 58 59 59 59 60 58 58 56 51 44 39 39 39 41 52 49 47 48 49 48 46 47 48 48 48